STARLINK-1031

Last updated on Thu Dec 12 2019 00:02:03 GMT+0000 (Coordinated Universal Time)

1 44736U 19074Z 19345.58335648 .00076349 00000-0 54373-3 0 9993 2 44736 53.0091 21.5465 0002034 12.0835 25.1594 15.73182861 4737

Satellite not in orbit